MST,Max TemperatureF,Mean TemperatureF,Min TemperatureF,Max Dew PointF,MeanDew PointF,Min DewpointF,Max Humidity, Mean Humidity, Min Humidity, Max Sea Level PressureIn, Mean Sea Level PressureIn, Min Sea Level PressureIn, Max VisibilityMiles, Mean VisibilityMiles, Min VisibilityMiles, Max Wind SpeedMPH, Mean Wind SpeedMPH, Max Gust SpeedMPH,PrecipitationIn, CloudCover, Events, WindDirDegrees
2014-1-1,41,30,19,37,27,16,93,82,65,30.30,30.14,29.91,10,9,1,21,10,25,0.00,6,Rain-Snow,337
2014-1-2,44,32,19,27,21,16,93,71,37,30.27,30.18,30.00,10,10,10,15,9,,0.00,1,,250
2014-1-3,64,42,21,30,24,18,86,54,18,29.99,29.71,29.53,10,10,10,34,12,55,0.00,1,,263
2014-1-4,35,25,15,27,14,5,75,60,37,30.12,29.96,29.70,10,10,10,30,16,37,0.00,6,Snow,3
2014-1-5,19,10,0,10,2,-15,86,67,47,30.41,30.28,30.11,10,8,1,26,11,34,0.00,5,Snow,352
2014-1-6,30,12,-5,14,2,-13,78,60,36,30.34,30.22,30.03,10,10,10,15,11,18,0.00,1,,267
2014-1-7,50,32,15,27,18,9,74,56,27,30.05,30.00,29.94,10,10,10,15,9,,0.00,3,,320
2014-1-8,37,28,19,23,20,18,93,71,52,30.16,30.08,30.03,10,10,10,15,8,18,0.00,3,,143
2014-1-9,46,30,14,28,20,10,93,77,43,30.02,29.83,29.64,10,10,10,12,6,10,0.00,1,,187
2014-1-10,46,37,28,32,22,12,93,59,27,29.80,29.66,29.60,10,9,1,25,12,33,0.00,5,Snow,305
2014-1-11,55,44,32,27,23,21,70,50,28,29.94,29.80,29.58,10,10,10,22,12,32,0.00,1,,256
2014-1-12,53,43,33,30,22,10,75,50,23,29.88,29.66,29.51,10,10,10,26,14,44,0.00,2,,296
2014-1-13,53,36,19,32,20,14,80,49,26,29.94,29.87,29.81,10,10,4,25,14,38,0.00,4,,286
2014-1-14,41,36,32,32,24,14,93,65,42,30.32,30.21,29.92,10,10,1,33,18,45,0.00,5,Snow,322
2014-1-15,60,44,28,25,21,19,75,45,22,30.24,30.04,29.92,10,10,10,28,13,34,0.00,2,,287
2014-1-16,42,34,26,25,14,5,65,41,23,30.25,30.14,29.99,10,9,4,43,23,54,0.00,1,,323
2014-1-17,55,37,19,21,17,12,74,48,22,30.20,30.07,29.97,10,10,10,20,9,34,0.00,1,,287
2014-1-18,53,38,24,21,14,3,64,37,13,30.14,30.06,29.96,10,9,2,38,18,51,0.00,1,,301
2014-1-19,68,46,23,21,16,10,74,36,11,30.04,29.95,29.89,10,10,10,24,13,32,0.00,0,,292
2014-1-20,48,34,14,21,15,7,74,40,24,30.37,30.20,29.93,10,10,4,37,16,55,0.00,1,,326
2014-1-21,60,36,12,21,11,5,86,47,11,30.35,30.14,30.03,10,10,10,36,10,43,0.00,0,,291
2014-1-22,41,28,12,27,17,0,74,62,52,30.45,30.19,30.10,10,10,3,21,10,25,0.00,5,Snow,10
2014-1-23,24,14,5,10,2,-8,79,59,44,30.63,30.49,30.27,10,10,5,16,9,21,0.00,3,Snow,224
2014-1-24,59,36,14,25,16,9,79,39,22,30.25,30.10,30.01,10,10,10,31,17,41,0.00,1,,291
2014-1-25,60,46,33,28,22,18,65,39,22,30.11,29.99,29.84,10,10,7,25,15,31,0.00,0,,293
2014-1-26,59,38,15,30,20,3,81,50,23,30.23,29.92,29.75,10,10,3,37,16,47,0.00,2,Snow,333
2014-1-27,21,14,8,12,4,-4,86,59,33,30.25,30.21,30.18,10,10,7,12,5,16,0.00,2,,228
2014-1-28,32,18,5,10,5,0,86,61,30,30.27,30.17,30.03,10,10,10,15,9,25,0.00,1,,278
2014-1-29,59,34,10,23,11,3,79,43,13,30.02,29.76,29.39,10,10,10,17,10,24,0.00,1,,238
2014-1-30,53,38,24,34,26,19,86,68,41,29.86,29.70,29.39,10,8,1,32,15,44,0.00,3,Rain-Snow,32
2014-1-31,26,17,8,21,16,3,93,85,69,29.93,29.83,29.75,10,7,1,15,9,,0.00,6,Snow,162